User: anonymous   Login
Location: Unspecified
(0.0000°N, 0.0000°E)
Time: 20:13:59
(UTC+00:00)
Language:

Altair - Orbit

View from above orbital plane
View from above orbital plane
View from above satellite
View from above satellite

Ground track
Ground track

The orbit data is extracted from the following two-line orbital elements,

1 00050U 60009B   15062.27159456 -.00000085  00000-0  27919-5 0  9990
2 00050 047.2342 001.1278 0114415 324.3482 034.9706 12.20090883434643
Epoch (UTC): 03 March 2015 06:31:05
Eccentricity: 0.0114415
inclination: 47.2342°
perigee height: 1501 km
apogee height: 1683 km
right ascension of ascending node: 1.1278°
argument of perigee: 324.3482°
revolutions per day: 12.20090883
mean anomaly at epoch: 34.9706°
orbit number at epoch: 43464

The dashed part of the orbit path shows where the satellite is in the earth's shadow,  

DLR